Temp
4 4 4 4 4 5 5 5 5 5 5 5 5 5 5 5 5 4 4 4 4 4 4 4 4 4 4 4 4 4 4 4 4 4 4 4 4 4 4 4 4 4
4 4 4 4 4 4 5 5 5 5 5 5 5 5 5 5 5 5 4 4 4 4 4 4 4 4 4 4 4 4 4 4 4 4 4 4 4 4 4 4 4 4
4 4 4 4 4 4 4 5 5 5 5 5 5 5 5 5 5 5 4 4 4 4 4 4 4 4 4 4 4 4 4 4 4 4 4 4 4 4 4 4 4 4
4 4 4 4 4 4 4 4 5 5 5 5 5 5 5 5 4 4 4 4 4 4 4 4 4 4 4 4 4 4 4 4 4 4 4 4 4 4 4 4 4 4
4 4 4 4 4 4 4 4 5 5 5 5 4 4 4 4 4 4 4 4 4 4 4 4 4 4 4 4 4 4 4 4 4 4 4 4 4 4 4 4 4 4
4 4 4 4 4 4 4 4 5 5 5 4 4 4 4 4 4 4 4 4 4 4 4 4 4 4 4 4 4 4 4 4 4 4 4 4 4 4 4 4 4 4
3 3 3 4 4 4 4 4 4 4 4 4 4 4 3 3 3 3 3 3 3 3 4 3 3 3 3 3 4 4 4 4 4 4 4 4 4 4 4 4 4 4
3 3 3 3 4 4 4 4 4 4 4 4 4 4 3 3 3 3 3 3 3 3 3 3 3 3 3 3 3 4 4 4 4 4 4 4 4 4 4 4 4 4
3 3 3 3 4 4 4 4 4 4 4 4 4 4 4 3 3 3 3 3 3 3 3 3 3 3 3 3 3 3 4 4 4 4 4 4 4 4 4 4 4 4
3 3 3 3 3 3 4 4 4 4 4 4 4 4 3 3 3 2 2 2 2 2 3 3 3 3 3 3 3 3 3 3 3 4 4 4 4 4 4 4 4 4
3 2 3 3 3 3 3 3 3 3 3 3 3 3 3 3 3 2 2 2 2 2 2 2 2 2 2 2 3 3 3 3 3 3 4 4 4 4 4 4 4 4
2 2 2 3 3 3 3 3 3 3 3 3 3 3 3 3 3 3 2 2 2 2 2 2 2 2 2 2 2 3 3 3 3 3 3 4 4 4 4 4 4 4
2 2 2 2 2 2 2 2 3 3 3 3 3 3 3 3 3 3 3 2 2 2 2 2 2 2 2 2 2 3 3 3 3 3 3 4 4 4 4 4 4 4
1 1 1 2 2 2 2 2 2 2 2 2 2 2 2 2 3 3 3 2 2 2 2 2 2 2 2 2 2 3 3 3 3 3 3 3 4 4 4 4 4 4
0 0 1 1 1 1 1 1 2 2 2 2 2 2 2 2 2 3 3 3 2 2 2 2 2 2 2 2 2 2 3 3 3 3 3 3 3 4 4 4 4 4
-0 -0 0 0 1 1 1 1 1 1 2 2 2 3 3 3 3 2 2 2 2 2 2 1 1 2 2 2 2 2 2 2 3 3 3 3 4 4 4 4 4 4
-1 -1 -1 -0 -0 0 0 0 1 1 1 2 2 3 3 3 3 3 2 2 2 2 2 1 1 1 2 2 2 2 2 2 3 3 3 3 4 4 4 4 4 4
-1 -1 -1 -1 -1 -0 -0 0 0 1 1 2 2 3 3 3 3 3 2 2 2 2 2 2 2 2 2 2 2 2 2 3 3 3 3 3 3 4 4 4 4 4
-1 -1 -1 -1 -1 -1 -1 -1 -0 0 1 1 2 2 2 2 2 2 2 2 2 2 2 2 2 2 2 2 2 2 3 3 3 3 3 3 3 4 4 4 4 4
-1 -1 -1 -1 -1 -1 -1 -1 -1 -0 -0 0 0 0 -0 0 1 2 2 2 2 2 2 2 2 2 2 2 2 2 3 3 3 3 3 3 3 3 4 4 4 4
-1 -1 -1 -1 -1 -1 -1 -1 -1 -1 -1 -1 -1 -1 -1 -1 0 1 2 2 2 2 2 2 2 2 2 2 2 2 2 3 3 3 3 3 3 3 3 4 4 4
-1 -1 -1 -1 -1 -2 -2 -1 -2 -2 -2 -2 -2 -2 -2 -1 -0 0 1 1 1 2 2 2 2 2 1 1 1 2 2 2 2 3 3 3 3 3 3 3 4 4
-1 -1 -1 -1 -2 -2 -2 -2 -2 -2 -3 -3 -3 -3 -2 -2 -1 -0 0 1 1 1 1 1 1 1 1 1 1 1 1 2 2 2 3 3 3 3 4 4 4 4
-1 -1 -2 -2 -2 -2 -2 -2 -3 -3 -3 -3 -3 -3 -3 -2 -1 -1 -0 0 1 1 1 1 1 0 0 -0 -0 0 1 1 2 2 2 3 3 3 3 4 4 4
-1 -2 -2 -2 -2 -2 -2 -3 -3 -3 -3 -3 -3 -3 -3 -3 -2 -1 -0 -0 0 0 0 -0 -0 -0 -0 -1 -0 -0 0 1 1 2 2 2 3 3 3 3 4 4
-1 -2 -2 -2 -2 -2 -3 -3 -3 -3 -3 -4 -4 -3 -3 -3 -2 -1 -1 -1 -1 -1 -1 -1 -1 -1 -1 -1 -0 -0 0 0 1 1 1 2 2 3 3 3 3 3
Height
3154 3154 3154 3154 3155 3155 3155 3155 3155 3155 3155 3155 3156 3155 3155 3156 3156 3156 3156 3157 3157 3158 3158 3158 3158 3158 3158 3158 3158 3158 3159 3160 3161 3162 3163 3164 3164 3165 3166 3167 3167 3167
3152 3152 3152 3152 3152 3152 3153 3153 3153 3153 3153 3152 3153 3152 3152 3153 3153 3153 3154 3154 3155 3155 3155 3155 3155 3155 3156 3156 3156 3156 3156 3157 3158 3159 3160 3161 3162 3162 3163 3164 3164 3164
3150 3150 3150 3150 3150 3150 3150 3150 3150 3149 3149 3149 3149 3149 3149 3150 3150 3150 3151 3151 3152 3152 3152 3152 3153 3153 3154 3153 3153 3153 3154 3155 3155 3156 3157 3157 3158 3159 3160 3160 3161 3161
3147 3147 3147 3147 3147 3147 3147 3147 3146 3146 3146 3146 3146 3146 3146 3146 3146 3147 3147 3148 3148 3149 3149 3149 3150 3151 3151 3151 3151 3151 3152 3152 3152 3153 3153 3154 3155 3156 3156 3157 3157 3157
3144 3144 3144 3144 3144 3144 3144 3144 3143 3143 3143 3142 3142 3142 3142 3142 3143 3143 3144 3144 3145 3146 3146 3146 3146 3147 3148 3148 3148 3148 3149 3149 3150 3150 3150 3151 3152 3152 3153 3153 3153 3153
3141 3141 3141 3141 3141 3141 3141 3141 3140 3140 3139 3139 3138 3138 3138 3139 3139 3140 3140 3141 3142 3142 3143 3143 3143 3144 3144 3144 3145 3145 3146 3146 3146 3147 3147 3147 3148 3148 3149 3149 3149 3150
3137 3137 3137 3137 3137 3137 3137 3137 3137 3137 3136 3136 3136 3135 3135 3135 3136 3136 3136 3137 3138 3138 3139 3139 3140 3140 3141 3141 3141 3142 3142 3143 3143 3144 3144 3144 3144 3145 3145 3145 3146 3146
3134 3134 3134 3134 3134 3134 3134 3134 3134 3134 3133 3133 3133 3133 3132 3132 3132 3132 3132 3133 3134 3135 3136 3136 3137 3138 3138 3138 3138 3139 3139 3140 3140 3140 3141 3141 3141 3142 3142 3142 3142 3142
3131 3131 3131 3131 3131 3130 3130 3130 3130 3130 3130 3130 3130 3130 3129 3129 3129 3129 3129 3129 3130 3131 3132 3133 3134 3135 3135 3135 3135 3136 3136 3136 3137 3137 3138 3138 3138 3139 3139 3139 3139 3139
3128 3128 3128 3128 3128 3127 3126 3126 3127 3127 3127 3127 3127 3127 3126 3126 3126 3126 3126 3126 3127 3128 3129 3130 3131 3131 3132 3132 3132 3132 3133 3133 3134 3134 3135 3135 3135 3136 3136 3136 3136 3136
3125 3126 3125 3125 3124 3123 3123 3123 3123 3124 3124 3124 3124 3124 3123 3123 3123 3122 3122 3122 3123 3124 3125 3125 3126 3127 3128 3128 3128 3128 3129 3130 3130 3131 3131 3131 3132 3132 3132 3133 3132 3132
3122 3122 3122 3122 3121 3120 3119 3119 3119 3120 3121 3121 3121 3121 3120 3120 3119 3119 3119 3118 3119 3120 3120 3121 3122 3122 3123 3123 3124 3124 3125 3126 3126 3126 3127 3127 3127 3128 3128 3128 3129 3129
3118 3118 3118 3118 3117 3116 3116 3116 3116 3117 3117 3117 3117 3117 3117 3117 3116 3115 3115 3114 3115 3115 3116 3117 3117 3118 3118 3119 3119 3120 3121 3122 3122 3122 3122 3123 3123 3124 3124 3124 3125 3125
3114 3114 3114 3114 3113 3113 3113 3113 3113 3113 3113 3113 3113 3113 3113 3113 3112 3112 3111 3111 3111 3111 3112 3113 3113 3113 3114 3114 3115 3115 3116 3117 3118 3118 3118 3119 3119 3120 3120 3120 3121 3121
3110 3111 3110 3110 3110 3110 3110 3110 3109 3109 3108 3108 3108 3109 3109 3108 3108 3108 3107 3107 3107 3107 3108 3108 3108 3109 3109 3110 3110 3111 3111 3113 3113 3114 3114 3115 3115 3116 3116 3117 3117 3118
3107 3107 3107 3107 3107 3107 3107 3106 3106 3105 3104 3104 3104 3104 3104 3103 3103 3103 3103 3103 3103 3103 3103 3103 3103 3104 3104 3105 3105 3106 3106 3107 3108 3110 3110 3110 3111 3111 3112 3113 3114 3114
3104 3104 3104 3104 3104 3103 3103 3103 3103 3102 3101 3100 3099 3099 3098 3098 3098 3098 3098 3099 3099 3099 3099 3098 3098 3099 3099 3100 3100 3101 3102 3102 3103 3104 3106 3106 3107 3107 3108 3109 3110 3110
3101 3101 3101 3101 3101 3101 3100 3099 3099 3098 3097 3096 3095 3094 3093 3093 3093 3093 3094 3094 3095 3095 3094 3093 3093 3094 3094 3095 3096 3096 3097 3098 3098 3099 3101 3102 3102 3103 3104 3104 3105 3105
3099 3099 3098 3098 3098 3097 3096 3095 3094 3094 3093 3092 3090 3089 3088 3088 3088 3088 3089 3089 3090 3090 3089 3089 3089 3089 3090 3090 3091 3092 3092 3093 3094 3094 3095 3097 3098 3098 3099 3099 3100 3100
3096 3096 3095 3095 3094 3094 3093 3092 3091 3089 3088 3087 3085 3084 3083 3083 3084 3084 3084 3085 3086 3086 3085 3085 3085 3085 3085 3086 3087 3087 3088 3088 3089 3090 3091 3092 3092 3093 3094 3095 3095 3095
3093 3092 3092 3092 3091 3090 3089 3089 3087 3086 3084 3082 3081 3080 3080 3080 3080 3080 3080 3081 3082 3081 3081 3081 3081 3081 3081 3082 3083 3083 3083 3084 3085 3085 3086 3087 3087 3088 3089 3090 3090 3090
3089 3089 3089 3089 3088 3087 3086 3085 3084 3082 3081 3079 3078 3077 3077 3076 3076 3076 3076 3077 3077 3077 3078 3078 3078 3078 3078 3078 3079 3079 3080 3080 3080 3081 3081 3082 3082 3083 3084 3084 3085 3085
3086 3086 3086 3085 3085 3084 3083 3082 3080 3079 3078 3076 3075 3074 3074 3073 3073 3073 3073 3073 3073 3073 3074 3074 3075 3075 3075 3075 3075 3076 3076 3077 3077 3077 3077 3077 3078 3078 3078 3079 3079 3080
3083 3083 3082 3082 3081 3080 3079 3078 3077 3076 3075 3073 3072 3072 3071 3070 3070 3070 3070 3070 3069 3070 3070 3071 3071 3071 3072 3072 3072 3073 3073 3073 3073 3073 3073 3073 3073 3073 3073 3073 3074 3074
3079 3079 3078 3078 3077 3077 3076 3075 3074 3072 3071 3070 3069 3068 3068 3067 3067 3067 3066 3066 3066 3066 3066 3067 3068 3068 3069 3069 3069 3070 3070 3070 3069 3069 3068 3068 3068 3068 3068 3068 3068 3069
3076 3075 3075 3075 3074 3073 3072 3071 3070 3069 3068 3067 3066 3065 3065 3064 3063 3063 3063 3063 3063 3063 3063 3064 3065 3065 3066 3066 3066 3066 3066 3066 3066 3065 3064 3064 3063 3064 3064 3064 3064 3063
Wind_Speed
17 16 16 16 16 17 17 18 19 19 20 21 22 24 24 25 25 25 24 23 21 20 21 22 23 24 24 24 24 25 27 28 27 26 26 25 24 24 25 25 26 26
19 19 18 17 17 18 18 19 19 20 20 20 22 24 24 25 25 26 26 24 23 22 22 22 23 24 25 25 25 25 26 27 27 27 27 27 26 26 26 26 26 26
22 21 19 18 18 18 19 20 20 21 21 21 22 23 24 25 26 26 26 26 25 25 23 22 23 24 25 26 26 25 25 26 27 27 27 28 28 28 28 28 28 28
23 23 21 20 19 19 20 21 21 21 21 21 22 24 25 26 27 27 28 28 27 27 26 25 24 25 26 26 27 27 26 27 27 27 27 28 29 30 30 29 29 29
24 23 22 21 20 20 21 22 22 22 22 22 22 24 25 27 29 29 30 30 29 28 28 28 26 26 27 27 27 28 28 29 29 28 28 29 29 30 30 30 30 30
22 22 22 21 21 21 22 22 22 22 22 22 23 24 25 27 29 31 31 31 30 30 30 30 29 28 27 27 27 28 29 30 31 30 31 31 30 31 31 31 31 30
22 22 22 22 22 21 22 22 22 21 22 22 22 23 24 26 28 31 33 33 32 32 32 32 31 29 27 27 28 28 28 30 30 31 32 32 31 31 31 31 30 30
23 23 22 22 22 22 22 22 21 20 21 21 21 22 24 25 27 29 32 34 35 34 33 33 32 31 30 29 29 29 29 29 30 31 32 32 31 31 32 32 31 30
23 22 22 22 22 22 22 22 21 20 20 21 21 21 23 25 26 28 30 33 35 35 35 34 33 33 32 31 31 31 30 29 29 30 31 32 32 32 32 33 33 32
22 21 21 22 21 20 21 21 21 20 21 21 21 22 23 25 26 28 29 31 34 35 36 35 35 34 34 34 33 32 30 29 29 29 30 31 32 32 32 33 33 32
23 21 21 20 19 19 20 21 22 22 22 22 23 23 24 25 26 28 29 31 33 35 36 36 36 35 35 35 34 32 30 29 29 29 29 30 30 31 32 32 33 33
23 21 20 19 18 18 19 21 22 24 24 25 25 25 25 25 26 27 29 31 33 34 36 36 36 36 36 36 35 33 31 30 30 30 30 31 30 31 31 32 33 34
21 20 20 18 16 16 18 20 22 25 27 28 28 27 27 27 27 28 29 31 32 34 36 37 37 37 38 38 37 36 34 33 32 31 31 31 31 31 32 32 32 33
20 20 20 18 16 16 17 19 21 24 27 29 30 30 30 29 29 29 30 31 32 33 35 37 39 39 39 39 39 38 37 35 35 34 32 32 32 32 32 31 31 31
20 20 19 18 18 19 19 20 22 24 26 28 29 30 30 30 31 31 31 32 32 32 34 37 39 40 41 41 40 40 39 38 37 36 34 33 32 32 31 31 30 30
19 20 20 21 22 23 22 23 24 26 26 27 27 27 27 28 30 30 31 32 32 32 33 36 38 39 41 42 42 42 41 40 39 38 36 35 33 33 32 31 30 29
20 21 22 24 26 27 27 27 27 27 27 26 26 26 26 26 27 28 29 30 30 30 32 35 37 38 39 42 43 44 44 43 42 40 39 37 36 35 34 32 31 31
21 23 25 28 29 29 30 31 30 28 27 26 26 26 26 25 25 26 26 26 28 29 31 34 36 37 38 40 42 44 45 46 45 44 42 40 38 37 36 34 34 33
24 26 28 30 31 31 33 33 33 30 27 25 24 24 24 23 23 23 24 25 26 28 31 34 35 36 36 37 39 41 43 44 45 45 43 41 40 38 38 37 36 35
26 28 30 31 32 33 34 35 33 29 25 22 21 21 22 21 21 21 22 24 25 28 30 33 34 34 34 34 35 37 38 40 41 42 42 41 40 39 39 39 38 38
28 30 31 32 32 34 35 33 29 25 21 21 21 21 20 19 18 19 21 23 24 27 29 31 32 33 32 30 30 32 34 36 37 38 39 39 39 39 38 39 39 40
30 31 31 32 33 34 33 28 23 20 19 19 20 20 18 17 17 17 19 20 22 24 26 28 29 30 29 27 26 28 30 33 34 36 37 38 38 38 38 38 38 39
31 31 31 32 33 32 28 23 20 19 19 19 20 19 18 17 16 16 16 18 20 21 22 25 26 26 25 23 23 24 26 29 31 33 34 35 36 37 37 37 37 38
31 31 32 33 32 29 24 21 20 20 20 21 21 21 20 19 18 16 16 18 19 20 21 23 24 23 21 20 20 21 22 24 26 29 30 31 32 34 35 36 36 36
31 32 32 32 30 26 23 21 21 22 22 22 21 21 20 20 19 17 16 17 18 19 20 21 22 20 18 17 18 18 19 20 22 24 26 28 29 30 32 34 35 36
31 31 31 31 28 25 24 23 24 24 24 24 23 22 21 20 19 18 17 17 18 19 19 20 20 18 17 16 17 17 17 17 19 21 23 25 27 27 28 30 32 34
Wind_Direction
260 261 263 265 270 275 276 273 266 259 252 246 242 242 242 242 242 242 243 246 247 246 242 238 235 235 234 233 232 230 228 227 228 230 231 231 232 232 230 230 233 237
260 260 260 261 266 272 275 271 264 259 256 250 243 241 241 241 241 242 242 243 245 245 244 243 241 239 237 234 232 230 229 228 229 231 232 231 231 231 230 230 233 238
262 262 262 261 262 267 270 268 262 259 257 253 247 243 240 240 240 240 241 241 242 243 243 245 245 244 241 238 236 233 230 230 231 231 232 232 230 230 230 232 235 238
263 264 263 261 261 265 266 263 259 258 257 255 252 247 241 239 238 237 238 239 240 241 243 243 244 246 245 241 240 238 234 232 232 231 232 232 232 232 232 233 236 239
264 264 262 260 260 262 263 260 258 258 258 256 254 251 246 240 238 236 236 239 239 238 241 243 243 245 247 245 242 240 238 236 235 234 234 233 233 234 234 235 237 239
261 259 257 256 258 260 259 257 257 258 258 256 255 254 251 246 241 238 237 238 239 238 239 243 244 245 248 249 247 242 239 238 237 236 236 235 234 234 235 236 238 240
256 252 251 253 255 257 256 255 257 260 260 258 256 255 255 252 246 242 239 238 239 239 239 241 244 245 247 250 250 246 242 240 239 238 238 238 235 233 234 236 238 241
255 249 247 251 254 253 252 252 254 258 260 260 258 257 256 255 251 247 243 240 239 240 240 241 243 246 247 248 250 250 247 243 241 239 239 239 237 235 236 237 239 241
255 248 246 250 252 252 252 252 253 255 259 260 259 259 257 256 255 252 248 244 242 242 243 244 245 247 248 248 250 252 251 246 242 240 240 240 239 239 240 241 242 243
255 250 251 250 250 252 253 254 255 257 259 260 259 258 259 258 258 255 252 248 245 244 246 246 247 248 248 248 249 250 250 247 244 243 243 244 243 243 243 243 244 244
255 253 253 251 249 251 253 254 256 257 260 261 260 259 260 260 259 256 254 251 247 245 246 247 247 248 248 249 249 249 249 246 245 243 243 244 245 244 244 244 245 246
257 258 258 255 252 252 252 252 253 255 258 260 261 261 261 261 259 257 254 252 249 246 245 246 247 247 247 248 249 248 247 245 244 244 243 242 243 243 244 245 247 247
264 264 263 260 257 258 259 257 255 255 256 258 260 262 262 262 261 259 256 253 251 248 245 245 246 247 247 248 249 249 247 245 244 245 244 243 243 244 244 245 246 247
265 263 265 267 270 275 276 271 265 262 259 259 260 262 263 264 263 261 259 256 253 250 248 246 246 246 248 249 250 249 247 245 245 245 245 245 245 245 246 246 246 246
262 265 273 279 284 288 289 284 277 273 269 265 264 263 264 264 263 262 261 258 255 253 250 248 246 246 247 248 249 249 248 246 245 244 244 244 244 245 246 246 245 245
266 274 282 287 290 292 294 292 287 284 280 275 270 267 265 264 263 261 259 257 256 254 252 250 248 247 246 247 247 247 248 248 246 244 242 243 244 244 245 246 245 244
272 278 282 286 290 293 295 294 293 290 286 281 275 270 266 264 263 261 258 256 254 254 254 252 250 248 247 247 246 246 246 248 248 246 245 245 245 245 245 247 247 246
273 277 280 283 286 290 294 295 295 293 288 282 277 271 265 262 261 260 257 253 251 251 252 252 251 249 248 247 246 246 246 247 249 249 249 248 247 246 246 247 248 248
270 273 276 279 284 289 292 294 296 295 290 283 278 273 269 265 261 258 252 248 248 249 250 252 252 252 250 249 248 247 247 247 248 250 251 251 250 248 247 247 248 248
266 270 274 279 284 289 291 294 296 294 291 287 283 280 277 273 266 257 248 244 246 249 251 253 255 255 255 253 251 249 249 248 248 249 251 252 252 251 250 249 249 249
265 268 274 279 284 288 291 293 293 291 289 289 288 286 283 278 268 255 246 243 245 249 253 255 257 258 258 257 253 250 248 247 247 248 251 252 253 253 252 251 250 251
264 268 274 278 283 288 291 293 291 290 291 290 289 288 285 281 270 256 246 244 245 251 256 258 258 259 259 258 254 250 249 248 248 250 251 253 255 255 254 252 250 250
266 271 275 279 284 288 291 294 295 295 294 291 288 286 282 279 272 258 248 247 249 253 257 258 257 257 256 256 255 253 252 252 252 253 253 254 256 256 256 253 250 249
269 273 276 281 287 289 291 297 300 299 296 292 289 286 282 278 271 259 250 251 253 253 253 253 253 252 252 254 256 258 258 258 257 257 256 256 256 256 257 256 254 251
271 274 278 284 288 289 291 297 301 301 301 298 293 290 287 279 269 258 251 252 255 253 249 248 249 249 249 254 260 263 265 266 265 264 262 260 258 257 258 259 260 258
271 274 280 285 286 288 292 296 299 301 303 301 297 293 288 278 264 253 247 248 250 249 246 244 244 244 247 253 260 265 270 272 272 271 269 267 264 262 260 260 261 261